Regional Weather Roundup
Issued by NWS

Home | Current Version | Previous Version | Text Only | Print | Product List | Glossary On
Versions: 1 2 3 4 5 6 7 8 9 10 11 12 13 14 15 16 17 18 19 20 21 22 23 24 25 26 27 28 29 30 31 32 33 34 35 36 37 38 39 40 41 42 43 44 45 46 47 48 49 50
535
ASPQ40 PGUM 150110
RWRPQ
WEATHER ROUNDUP FOR THE MARIANAS AND MICRONESIA
NATIONAL WEATHER SERVICE TIYAN GU
1100 AM CHST FRI NOV 15 2019

GUZ001>004-150200-
MARIANA ISLANDS-

CITY           SKY/WX    TMP DP  RH WIND       PRES   REMARKS
GUAM AIRPORT   MOSUNNY   86  75  70 E8        29.87S HX  95
ANDERSEN AFB   MOSUNNY   84  75  74 E7        29.88S HX  92
ROTA AIRPORT   PTSUNNY   84  75  74 SE7       29.84S HX  92
TINIAN AP      PTSUNNY   88  75  66 S6        29.84F HX  97
SAIPAN AP      SUNNY     82  75  78 S10       29.86S

$$

PMZ161-150200-
REPUBLIC OF PALAU-

CITY           SKY/WX    TMP DP  RH WIND       PRES   REMARKS
KOROR AP       PTSUNNY   84  77  79 S5        29.82S HX  94
KOROR WSO      NOT AVBL

$$

PMZ171>174-150200-
FEDERATED STATES OF MICRONESIA-

CITY           SKY/WX    TMP DP  RH WIND       PRES   REMARKS
YAP AIRPORT    PTSUNNY   88  79  74 VRB7      29.84F HX 102
CHUUK AP       PTSUNNY   90  82  79 NE8       29.81  HX 111
POHNPEI AP     CLOUDY    86  79  79 E5        29.80F HX  99
POHNPEI WSO    CLOUDY    84  77  79 NE5       29.83  HX  94
KOSRAE AP      PTSUNNY   88  75  66 S10       29.78F HX  97

$$

PMZ181-150200-
REPUBLIC OF THE MARSHALL ISLANDS-

CITY           SKY/WX    TMP DP  RH WIND       PRES   REMARKS
KWAJALEIN AP   RAIN      79  77  94 SE3       29.84F
MAJURO AP      NOT AVBL
MAJURO WSO     MOSUNNY   88  79  74 S7        29.80F HX 102

$$





USA.gov is the U.S. government's official web portal to all federal, state and local government web resources and services.